Regional Weather Roundup
Issued by NWS

Home | Current Version | Previous Version | Graphics & Text | Print | Product List | Glossary Off
Versions: 1 2 3 4 5 6 7 8 9 10 11 12 13 14 15 16 17 18 19 20 21 22 23 24 25 26 27 28 29 30 31 32 33 34 35 36 37 38 39 40 41 42 43 44 45 46 47 48 49 50

000
ASUS43 KTOP 190659
RWRKS

WEATHER ROUNDUP FOR KANSAS
NATIONAL WEATHER SERVICE GOODLAND KS
200 AM CDT FRI SEP 19 2014

NOTE:  "FAIR" INDICATES FEW OR NO CLOUDS BELOW 12,000 FEET WITH NO
SIGNIFICANT WEATHER AND/OR OBSTRUCTIONS TO VISIBILITY.

KSZ001>006-013>018-027>032-041>047-190800-
NORTHWEST KANSAS

CITY           SKY/WX    TMP DP  RH WIND       PRES   REMARKS
GOODLAND       CLEAR     68  57  68 SW15G23   29.94S
HAYS           CLEAR     68  57  68 S13       29.94F
HILL CITY      CLEAR     68  63  84 S9        29.92S
RUSSELL        CLEAR     66  60  81 S15       29.93S
$$

KSZ061>065-074>080-084>089-190800-
SOUTHWEST KANSAS

CITY           SKY/WX    TMP DP  RH WIND       PRES   REMARKS
DODGE CITY     CLEAR     65  60  84 S9        29.98S
ELKHART          N/A     62  57  83 S7          N/A
GARDEN CITY    CLEAR     63  59  87 SW8       29.97F
GREAT BEND     CLEAR     66  57  72 S10       29.96S
LIBERAL        CLEAR     63  55  77 SW8       30.02S
$$

KSZ066>073-081>083-090>101-190800-
SOUTHEAST KANSAS

CITY           SKY/WX    TMP DP  RH WIND       PRES   REMARKS
CHANUTE        CLEAR     65  63  93 SE7       30.00S
COFFEYVILLE    CLEAR     66  63  90 E6        29.99S
HUTCHINSON     CLEAR     66  61  84 S9        29.97S
NEWTON         CLEAR     64  57  77 S10       30.00S
PARSONS        CLEAR     66  63  90 CALM      30.01S
WICHITA INTL   CLEAR     66  62  87 SE7       29.97F
WICHITA JABRA  CLEAR     65  62  90 SE8       29.98S
WINFIELD       CLEAR     66  64  93 SE6       29.99S
$$

KSZ007>012-019>026-033>040-048>060-102>105-190800-
NORTHEAST KANSAS

CITY           SKY/WX    TMP DP  RH WIND       PRES   REMARKS
CONCORDIA      PTCLDY    66  64  93 SE16      29.96S
EMPORIA        CLEAR     63  62  97 SE9       30.00R
LAWRENCE       CLEAR     58  57  97 E6        30.01S FOG
MANHATTAN      PTCLDY    65  63  93 SE3       29.98S
OLATHE IND     CLEAR     61  60  97 S6        30.02F
OLATHE EXE     CLEAR     61  60  97 SE7       30.01F
SALINA         CLEAR     66  62  87 SE9       29.96S
TOPEKA BILLARD CLEAR     63  62  97 SE6       30.00F
TOPEKA FORBES  CLEAR     61  59  93 SE6       30.00S FOG
$$



USA.gov is the U.S. government's official web portal to all federal, state and local government web resources and services.